Hill AFB, UT

9:57 AM MST on December 06, 2016 (GMT -0700)
Hill Air Force Base

Weather History for KHIF - May, 2014

Change the Weather History Date:

Thursday, May 15, 2014

  Actual Average Record
Temperature  
Mean Temperature 59 °F -  
Max Temperature 72 °F 67 °F 86 °F (2012)
Min Temperature 46 °F 46 °F 37 °F (1999)
Degree Days  
Heating Degree Days 6    
Growing Degree Days 9 (Base 50)    
Moisture  
Dew Point 31 °F    
Average Humidity 34    
Maximum Humidity 49    
Minimum Humidity 23    
Precipitation  
Precipitation 0.00 in - - ()
Sea Level Pressure  
Sea Level Pressure 30.14 in    
Wind  
Wind Speed 11 mph (SE)    
Max Wind Speed 17 mph    
Max Gust Speed -    
Visibility 10 miles    
Events      
Averages and records for this station are not official NWS values.
T = Trace of Precipitation, MM = Missing Value Source: NWS Daily Summary

Daily Weather History Graph

Daily Weather History Graph

Search for Another Location

Airport or City:

Trip Planner

Search our weather history database for the weather conditions in past years. The results will help you decide how hot, cold, wet, or windy it might be!

Date:

Astronomy

May. 15, 2014 Rise Set
Actual Time 6:09 AM MDT 8:39 PM MDT
Civil Twilight 5:38 AM MDT 9:10 PM MDT
Nautical Twilight 4:59 AM MDT 9:49 PM MDT
Astronomical Twilight 4:15 AM MDT 10:33 PM MDT
Moon 9:51 PM MDT (5/15) 6:59 AM MDT (5/15)
Length of Visible Light 15h 32m
Length of Day
14h 29m
Full, 99% of the Moon is Illuminated
May 15
Full
May 21
Last Quarter
May 28
New
Jun 5
First Quarter
Jun 12
Full

Hourly Weather History & Observations

Time (MDT) Temp. Dew Point Humidity Pressure Visibility Wind Dir Wind Speed Gust Speed Precip Events Conditions
12:58 AM 52.9 °F 26.6 °F 36% 30.20 in 10.0 mi ESE 10.4 mph - N/A   Clear
1:58 AM 51.8 °F 26.2 °F 37% 30.19 in 10.0 mi ESE 17.3 mph - N/A   Clear
2:58 AM 49.8 °F 26.8 °F 41% 30.19 in 10.0 mi ESE 17.3 mph - N/A   Clear
3:58 AM 49.5 °F 26.8 °F 41% 30.19 in 10.0 mi ESE 13.8 mph - N/A   Clear
4:58 AM 47.5 °F 27.9 °F 47% 30.18 in 10.0 mi ESE 16.1 mph - N/A   Clear
5:58 AM 47.3 °F 27.5 °F 46% 30.18 in 10.0 mi ESE 15.0 mph - N/A   Clear
6:58 AM 46.8 °F 28.2 °F 49% 30.21 in 10.0 mi ESE 13.8 mph - N/A   Clear
7:58 AM 50.5 °F 29.1 °F 44% 30.20 in 10.0 mi ESE 15.0 mph - N/A   Clear
8:58 AM 54.1 °F 30.6 °F 41% 30.22 in 10.0 mi ESE 12.7 mph - N/A   Clear
9:58 AM 60.8 °F 33.3 °F 36% 30.20 in 10.0 mi East 6.9 mph - N/A   Clear
10:58 AM 65.1 °F 31.3 °F 28% 30.18 in 10.0 mi SW 8.1 mph - N/A   Partly Cloudy
11:58 AM 67.1 °F 31.8 °F 27% 30.19 in 10.0 mi Variable 5.8 mph - N/A   Clear
1:58 PM 70.2 °F 33.1 °F 25% 30.17 in 10.0 mi Variable 5.8 mph - N/A   Partly Cloudy
2:58 PM 71.8 °F 35.1 °F 26% 30.15 in 10.0 mi Variable 4.6 mph - N/A   Partly Cloudy
3:58 PM 71.2 °F 33.4 °F 25% 30.13 in 10.0 mi Variable 6.9 mph - N/A   Scattered Clouds
4:58 PM 71.8 °F 34.3 °F 25% 30.11 in 10.0 mi Variable 3.5 mph - N/A   Partly Cloudy
5:58 PM 72.1 °F 32.5 °F 23% 30.10 in 10.0 mi SW 5.8 mph - N/A   Clear
6:58 PM 71.2 °F 33.6 °F 25% 30.08 in 10.0 mi SSW 3.5 mph - N/A   Clear
7:58 PM 68.9 °F 35.1 °F 29% 30.08 in 10.0 mi South 4.6 mph - N/A   Clear
8:58 PM 63.3 °F 36.0 °F 36% 30.06 in 10.0 mi East 5.8 mph - 0.00 in   Clear
9:58 PM 63.1 °F 34.0 °F 34% 30.05 in 10.0 mi ESE 10.4 mph - N/A   Clear
10:58 PM 61.5 °F 34.0 °F 36% 30.04 in 10.0 mi ESE 11.5 mph - N/A   Clear
11:58 PM 61.0 °F 32.4 °F 34% 30.03 in 10.0 mi ESE 12.7 mph - N/A   Partly Cloudy